Tracking 35280 objects as of 7-Sep-2026
HD Live streaming from Space Station
objects crossing your sky now

SL-12 R/B(AUX MOTOR)

Track SL-12 R/B(AUX MOTOR) now!
10-day predictions


NORAD ID: 19170
Int'l Code: 1988-043H
Launch date: May 21, 1988
Source: Commonwealth of Independent States (former USSR) (CIS)
Launch site: TYURATAM MISSILE AND SPACE COMPLEX (TTMTR)

Note: This is a ROCKET BODY
Your satellite tracking list
Your tracking list is empty




NASA's NSSDC Master Catalog

Two Line Element Set (TLE):
1 19170U 88043H   26250.46415916  .00000179  00000-0  22350-3 0  9994
2 19170  64.8976 261.6906 5725630  19.1669 355.7208  4.25132450593553
Source of the keplerian elements: AFSPC